[[{"header":{"parameterUnit":"m.s-1","parameterCategory":1,"la1":30.2991,"la2":30.254,"lo1":-89.0895,"lo2":-89.0444,"dy":0.0017,"dx":0.0017,"nx":28,"ny":28,"refTime":"2024-08-16T03:00:00:Z","depth":0,"parameterNumber":2,"parameterNumberName":"U-component_of_WINDS"},"data":[0,0,0,0,0,0,0,0,0,0,0,0,0,0,0,0,0,0,0,0,0,0,0,0,0,0,0,0,0,0,0,0,0,0,0,0,0,0,0,0,0,0,0,0,0,0,0,0,0,0,0,0,0,0,0,0,0,0,-0.8249,-0.825,0,-0.8298,-0.8298,-0.8299,-0.8302,-0.8301,-0.8301,-0.83,-0.8354,-0.8355,-0.8357,0,0,0,0,0,0,0,0,0,0,0,0,0,-0.8161,-0.8163,-0.8249,-0.825,-0.825,-0.8298,-0.8298,-0.8299,-0.8302,-0.8301,-0.8301,-0.83,-0.8353,-0.8355,-0.8358,0,0,0,0,0,0,0,0,0,0,0,0,0,-0.8204,-0.8163,-0.8249,-0.8258,-0.8259,-0.8297,-0.8298,-0.8299,-0.8302,-0.8301,-0.8301,-0.83,-0.8352,-0.8355,-0.8358,-0.8392,0,0,-0.8367,-0.8368,0,0,0,0,0,0,0,0,-0.8201,-0.8207,-0.8256,-0.8257,-0.8258,-0.8293,-0.8287,-0.8331,-0.8302,-0.8286,-0.83,-0.8299,-0.8334,-0.8339,-0.835,-0.8395,-0.8397,-0.8367,-0.8369,-0.837,-0.8371,0,0,0,0,0,0,0,-0.8198,-0.8205,-0.8268,-0.8256,-0.8258,-0.826,-0.8265,-0.8295,-0.8314,-0.8287,-0.8288,-0.8293,-0.8335,-0.8347,-0.8351,-0.8398,-0.8367,-0.8369,-0.8371,-0.8372,-0.8473,-0.8474,0,0,0,0,0,0,-0.8193,-0.8202,-0.8267,-0.827,-0.8227,-0.8262,-0.8268,-0.8283,-0.8314,-0.8318,-0.8294,-0.8293,-0.8342,-0.8348,-0.8353,-0.8395,-0.837,-0.8373,-0.8374,-0.8472,-0.8474,-0.8475,0,0,0,0,0,0,-0.8192,-0.8199,-0.8265,-0.8236,-0.8245,-0.8264,-0.8281,-0.8284,-0.8296,-0.8319,-0.8322,-0.8302,-0.8342,-0.8349,-0.8382,-0.8397,-0.8374,-0.8377,-0.8471,-0.8473,-0.8474,-0.848,0,0,0,0,0,0,-0.8189,-0.8198,-0.8211,-0.8236,-0.8246,-0.8293,-0.8282,-0.8286,-0.8301,-0.83,-0.8328,-0.8332,-0.8342,-0.8378,-0.8385,-0.84,-0.8379,-0.847,-0.8472,-0.8474,-0.8478,-0.8481,-0.8483,0,0,0,0,0,-0.8186,-0.8212,-0.8212,-0.822,-0.8263,-0.8294,-0.8299,-0.8309,-0.8302,-0.8315,-0.833,-0.8331,-0.8394,-0.8381,-0.8389,-0.8406,-0.8469,-0.8471,-0.8473,-0.8477,-0.8481,-0.8483,0,0,0,0,0,0,-0.819,-0.8216,-0.8216,-0.8251,-0.827,-0.8294,-0.8312,-0.8313,-0.8336,-0.8334,-0.8347,-0.8353,-0.8386,-0.8399,-0.8385,-0.844,-0.8431,-0.8435,-0.8431,-0.8434,-0.8437,-0.8433,-0.8381,0,0,0,0,0,-0.8195,-0.8217,-0.8238,-0.8267,-0.8276,-0.8292,-0.8306,-0.8312,-0.8333,-0.8341,-0.8358,-0.8379,-0.8403,-0.842,-0.8443,-0.848,-0.8486,-0.8495,-0.8498,-0.85,-0.8503,-0.8523,-0.8527,-0.8481,-0.8481,-0.8481,0,0,-0.8205,-0.8222,-0.8236,-0.8268,-0.8284,-0.8307,-0.8299,-0.8324,-0.8342,-0.8346,-0.8378,-0.8391,-0.8415,-0.8449,-0.8466,-0.8462,-0.8517,-0.8502,-0.8504,-0.8506,-0.8526,-0.853,-0.8534,-0.8483,-0.8483,-0.8482,0,0,-0.8236,-0.8251,-0.8276,-0.8291,-0.8314,-0.8324,-0.833,-0.8354,-0.8362,-0.8394,-0.8397,-0.8418,-0.846,-0.8477,-0.8491,-0.8526,-0.8528,-0.8534,-0.8548,-0.8567,-0.857,-0.8574,-0.8586,-0.859,-0.8537,-0.8537,-0.8537,0,-0.8247,-0.8281,-0.8289,-0.8314,-0.8328,-0.8331,-0.8356,-0.8371,-0.8401,-0.8411,-0.8405,-0.8457,-0.8474,-0.8512,-0.852,-0.8532,-0.8539,-0.8531,-0.8569,-0.8572,-0.8575,-0.8588,-0.8592,-0.8537,-0.8537,-0.8537,-0.8537,0,-0.8293,-0.8317,-0.8334,-0.8361,-0.8377,-0.8403,-0.8415,-0.843,-0.8434,-0.8445,-0.8477,-0.8497,-0.8524,-0.8534,-0.8539,-0.8573,-0.8569,-0.8566,-0.8557,-0.858,-0.8592,-0.8597,-0.8538,-0.8538,-0.8538,-0.8538,0,0,-0.833,-0.8359,-0.8366,-0.8377,-0.8402,-0.8421,-0.8445,-0.8471,-0.8484,-0.8504,-0.8525,-0.856,-0.8556,-0.8572,-0.8579,-0.8596,-0.8622,-0.859,-0.8591,-0.8596,-0.866,-0.8663,-0.8668,-0.8623,-0.8624,-0.8624,-0.8658,0,-0.8364,-0.8407,-0.8414,-0.8453,-0.8474,-0.8476,-0.8497,-0.8515,-0.8525,-0.8546,-0.8558,-0.8582,-0.8576,-0.8585,-0.8601,-0.8615,-0.8635,-0.8613,-0.8644,-0.8645,-0.8638,-0.8674,-0.8677,-0.8708,-0.8663,-0.8664,-0.8664,0,-0.841,-0.8429,-0.8469,-0.8489,-0.8498,-0.8517,-0.854,-0.856,-0.8579,-0.8586,-0.8602,-0.8606,-0.8633,-0.8621,-0.8658,-0.8643,-0.8656,-0.8664,-0.8666,-0.8669,-0.8656,-0.8679,-0.8719,-0.8723,-0.8672,-0.8671,-0.867,0,-0.8432,-0.8468,-0.8497,-0.8507,-0.8531,-0.8544,-0.8555,-0.8574,-0.8588,-0.8608,-0.8618,-0.8641,-0.8655,-0.8673,-0.8684,-0.8674,-0.872,-0.8709,-0.8726,-0.8726,-0.8736,-0.8736,-0.8779,-0.8744,-0.8744,-0.8744,-0.8744,0,-0.847,-0.8494,-0.8507,-0.8524,-0.8552,-0.8559,-0.8586,-0.8597,-0.8614,-0.8634,-0.8637,-0.8656,-0.8668,-0.8689,-0.8698,-0.8727,-0.8733,-0.8739,-0.8741,-0.8739,-0.8738,-0.8748,-0.8746,-0.8745,-0.8745,-0.8744,-0.8744,0,-0.85,-0.851,-0.8541,-0.856,-0.8565,-0.8585,-0.8602,-0.8619,-0.8628,-0.8653,-0.866,-0.8675,-0.8699,-0.8711,-0.8742,-0.8748,-0.8781,-0.8782,-0.8774,-0.8775,-0.8791,-0.8789,-0.8843,-0.885,-0.881,-0.881,-0.881,0,-0.8524,-0.8542,-0.8563,-0.8576,-0.8586,-0.8607,-0.8621,-0.8629,-0.8644,-0.8667,-0.8681,-0.8705,-0.8725,-0.8764,-0.8779,-0.8802,-0.8804,-0.8821,-0.8808,-0.8805,-0.8804,-0.8803,-0.8805,-0.8823,-0.8824,-0.8824,-0.8824,0,-0.8565,-0.8568,-0.8587,-0.8608,-0.8624,-0.8641,-0.8657,-0.8668,-0.8679,-0.8695,-0.8719,-0.8734,-0.8765,-0.8789,-0.8813,-0.8825,-0.8827,-0.8828,-0.8833,-0.8832,-0.8826,-0.883,-0.8781,-0.8827,-0.8827,-0.8827,-0.8827,-0.8826,-0.8593,-0.8609,-0.8625,-0.8646,-0.8659,-0.8674,-0.8691,-0.8701,-0.8721,-0.8745,-0.8749,-0.8775,-0.8793,-0.8826,-0.8838,-0.8859,-0.8855,-0.8863,-0.8865,-0.8867,-0.8868,-0.8822,-0.8864,-0.8863,-0.8863,-0.8863,-0.8863,0,-0.8634,-0.8644,-0.8663,-0.8685,-0.8702,-0.8699,-0.8718,-0.8732,-0.8754,-0.877,-0.8789,-0.8816,-0.8839,-0.8854,-0.8878,-0.8891,-0.8893,-0.8897,-0.8897,-0.89,-0.887,-0.8863,-0.8896,-0.8896,-0.8896,-0.8896,-0.8896,-0.8896,-0.8657,-0.8684,-0.8689,-0.8722,-0.8732,-0.8756,-0.8766,-0.878,-0.8793,-0.8823,-0.8841,-0.885,-0.8866,-0.8891,-0.8912,-0.8916,-0.8924,-0.8929,-0.8933,-0.8905,-0.8902,-0.8899,-0.8892,-0.8931,-0.8931,-0.8961,-0.8962,-0.8962]},{"header":{"parameterUnit":"m.s-1","parameterCategory":1,"la1":30.2991,"la2":30.254,"lo1":-89.0895,"lo2":-89.0444,"dy":0.0017,"dx":0.0017,"nx":28,"ny":28,"refTime":"2024-08-16T03:00:00:Z","depth":0,"parameterNumber":3,"parameterNumberName":"V-component_of_WINDS"},"data":[0,0,0,0,0,0,0,0,0,0,0,0,0,0,0,0,0,0,0,0,0,0,0,0,0,0,0,0,0,0,0,0,0,0,0,0,0,0,0,0,0,0,0,0,0,0,0,0,0,0,0,0,0,0,0,0,0,0,-0.3573,-0.357,0,-0.3309,-0.3306,-0.3303,-0.3191,-0.3191,-0.3192,-0.3192,-0.2914,-0.2906,-0.2899,0,0,0,0,0,0,0,0,0,0,0,0,0,-0.3972,-0.3966,-0.3573,-0.357,-0.3567,-0.3309,-0.3306,-0.3302,-0.3191,-0.3191,-0.3192,-0.3192,-0.2917,-0.2907,-0.2898,0,0,0,0,0,0,0,0,0,0,0,0,0,-0.3763,-0.3963,-0.3574,-0.348,-0.3469,-0.331,-0.3305,-0.3301,-0.319,-0.3191,-0.3192,-0.3193,-0.292,-0.2908,-0.2897,-0.2809,0,0,-0.2861,-0.2855,0,0,0,0,0,0,0,0,-0.3775,-0.3748,-0.3497,-0.3486,-0.3474,-0.3284,-0.3344,-0.3136,-0.319,-0.3296,-0.3192,-0.3193,-0.3036,-0.3015,-0.2963,-0.2796,-0.2784,-0.2859,-0.2852,-0.2847,-0.2844,0,0,0,0,0,0,0,-0.3789,-0.3759,-0.3468,-0.3494,-0.3479,-0.3448,-0.3419,-0.3304,-0.3165,-0.3287,-0.3278,-0.3249,-0.303,-0.2975,-0.2956,-0.2779,-0.286,-0.2849,-0.2842,-0.2837,-0.2522,-0.2521,0,0,0,0,0,0,-0.382,-0.3772,-0.3477,-0.346,-0.3629,-0.3441,-0.3408,-0.3344,-0.3166,-0.3139,-0.3248,-0.3245,-0.2995,-0.297,-0.2946,-0.2828,-0.2847,-0.2836,-0.2829,-0.2523,-0.2522,-0.252,0,0,0,0,0,0,-0.3829,-0.3795,-0.3487,-0.3613,-0.3572,-0.3433,-0.3361,-0.3338,-0.3283,-0.3137,-0.311,-0.3219,-0.2994,-0.2962,-0.2843,-0.2817,-0.2831,-0.282,-0.2525,-0.2523,-0.2521,-0.2595,0,0,0,0,0,0,-0.3841,-0.3799,-0.3767,-0.3614,-0.3566,-0.3392,-0.336,-0.3332,-0.3264,-0.3256,-0.3102,-0.3077,-0.2992,-0.2861,-0.2831,-0.2801,-0.2811,-0.2526,-0.2524,-0.2522,-0.2594,-0.2596,-0.2597,0,0,0,0,0,-0.3856,-0.3797,-0.3766,-0.3731,-0.3523,-0.3391,-0.3363,-0.327,-0.3263,-0.3227,-0.3132,-0.3082,-0.2825,-0.285,-0.2815,-0.2781,-0.2528,-0.2525,-0.2522,-0.2593,-0.2595,-0.2597,0,0,0,0,0,0,-0.3949,-0.3775,-0.3739,-0.3629,-0.3526,-0.3373,-0.3325,-0.3275,-0.317,-0.3167,-0.3052,-0.3018,-0.2908,-0.2832,-0.2864,-0.2684,-0.2672,-0.2662,-0.2738,-0.2739,-0.274,-0.276,-0.2801,0,0,0,0,0,-0.3957,-0.3867,-0.372,-0.3637,-0.3587,-0.3466,-0.3405,-0.3341,-0.3229,-0.3184,-0.308,-0.2971,-0.2865,-0.2798,-0.2693,-0.2583,-0.2545,-0.2542,-0.2543,-0.2545,-0.2537,-0.247,-0.2466,-0.2511,-0.2511,-0.2511,0,0,-0.3972,-0.3866,-0.3816,-0.3653,-0.3566,-0.3472,-0.3429,-0.3333,-0.3262,-0.3168,-0.305,-0.297,-0.284,-0.2724,-0.2668,-0.2658,-0.2517,-0.2541,-0.2544,-0.2535,-0.2467,-0.2463,-0.2459,-0.2509,-0.2509,-0.2509,0,0,-0.3951,-0.3864,-0.3784,-0.3697,-0.3566,-0.3485,-0.3466,-0.3319,-0.3263,-0.3143,-0.307,-0.2982,-0.2803,-0.2713,-0.2643,-0.2586,-0.2534,-0.2555,-0.2562,-0.2498,-0.2494,-0.2491,-0.2468,-0.2461,-0.2548,-0.2548,-0.2548,0,-0.3986,-0.3845,-0.3749,-0.3656,-0.3585,-0.3498,-0.3414,-0.3334,-0.3174,-0.3125,-0.3116,-0.2888,-0.2795,-0.2655,-0.2642,-0.2589,-0.2561,-0.2572,-0.2503,-0.2498,-0.2493,-0.247,-0.2462,-0.2551,-0.2551,-0.255,-0.255,0,-0.3893,-0.3796,-0.3747,-0.3597,-0.352,-0.3433,-0.3319,-0.3252,-0.3195,-0.3114,-0.299,-0.2875,-0.2743,-0.2706,-0.2648,-0.2557,-0.2554,-0.2526,-0.2511,-0.2494,-0.247,-0.246,-0.2556,-0.2554,-0.2554,-0.2553,0,0,-0.3924,-0.3721,-0.3705,-0.3634,-0.3482,-0.3403,-0.331,-0.3183,-0.3127,-0.3019,-0.2935,-0.2785,-0.2757,-0.2679,-0.261,-0.2554,-0.2512,-0.2531,-0.2526,-0.253,-0.2401,-0.2422,-0.2414,-0.2478,-0.2476,-0.2474,-0.2411,0,-0.3882,-0.3714,-0.3623,-0.3492,-0.34,-0.3314,-0.3232,-0.3128,-0.3049,-0.2956,-0.2867,-0.2762,-0.2735,-0.2686,-0.2627,-0.253,-0.2484,-0.2534,-0.2395,-0.2392,-0.243,-0.2402,-0.2424,-0.2371,-0.2401,-0.24,-0.2398,0,-0.3811,-0.3705,-0.3566,-0.3422,-0.3379,-0.3308,-0.3183,-0.3097,-0.2975,-0.2921,-0.2833,-0.2764,-0.2659,-0.2652,-0.2503,-0.2539,-0.2476,-0.242,-0.2415,-0.2398,-0.2394,-0.2381,-0.2352,-0.2343,-0.2383,-0.2384,-0.2385,0,-0.3845,-0.3668,-0.3561,-0.3504,-0.3334,-0.3285,-0.3211,-0.3091,-0.3019,-0.2909,-0.2861,-0.2739,-0.2672,-0.2578,-0.2477,-0.2482,-0.2337,-0.2323,-0.2286,-0.2289,-0.2258,-0.2262,-0.2217,-0.2222,-0.2222,-0.2222,-0.2222,0,-0.3807,-0.3724,-0.3574,-0.3508,-0.3412,-0.3306,-0.3213,-0.3132,-0.3025,-0.2939,-0.2857,-0.2777,-0.265,-0.2553,-0.2473,-0.236,-0.2331,-0.2282,-0.2261,-0.2288,-0.2294,-0.2245,-0.2245,-0.222,-0.222,-0.2221,-0.2221,0,-0.3829,-0.3726,-0.3603,-0.3452,-0.3412,-0.3347,-0.3216,-0.3146,-0.3063,-0.2955,-0.2923,-0.2791,-0.2673,-0.2563,-0.2405,-0.2351,-0.2236,-0.2211,-0.2278,-0.2267,-0.2236,-0.2239,-0.2156,-0.2139,-0.2158,-0.2158,-0.2158,0,-0.3811,-0.3745,-0.3587,-0.3525,-0.3453,-0.3354,-0.3281,-0.3173,-0.31,-0.2955,-0.2902,-0.2778,-0.2674,-0.2488,-0.2376,-0.2254,-0.2223,-0.2203,-0.2204,-0.2233,-0.222,-0.2225,-0.2216,-0.2204,-0.2205,-0.2205,-0.2205,0,-0.3789,-0.374,-0.364,-0.352,-0.3436,-0.3336,-0.3233,-0.3186,-0.3058,-0.2979,-0.2858,-0.2777,-0.2616,-0.2492,-0.2357,-0.2277,-0.2218,-0.2206,-0.219,-0.2216,-0.2257,-0.2232,-0.2281,-0.2208,-0.2207,-0.2207,-0.2207,-0.2207,-0.3788,-0.3725,-0.3604,-0.3493,-0.3405,-0.331,-0.3237,-0.3144,-0.3042,-0.2904,-0.2846,-0.2723,-0.2598,-0.2411,-0.2332,-0.2231,-0.2218,-0.2197,-0.2191,-0.2187,-0.2191,-0.2275,-0.2206,-0.2206,-0.2206,-0.2206,-0.2205,0,-0.376,-0.3678,-0.3577,-0.3436,-0.3348,-0.3303,-0.3186,-0.3115,-0.3008,-0.2899,-0.2797,-0.2656,-0.2536,-0.2414,-0.2286,-0.2229,-0.2198,-0.2198,-0.2201,-0.2182,-0.2211,-0.2236,-0.2225,-0.2225,-0.2225,-0.2225,-0.2225,-0.2225,-0.3735,-0.3625,-0.3562,-0.3406,-0.3322,-0.3203,-0.3139,-0.305,-0.2962,-0.2809,-0.2709,-0.2631,-0.2515,-0.2377,-0.2264,-0.223,-0.2186,-0.2193,-0.2153,-0.2181,-0.2181,-0.218,-0.2203,-0.2185,-0.2185,-0.2131,-0.2131,-0.2131]}]]